Flag for Germany Weather past 2 weeks in Walsrode, Lower Saxony, Germany

Now
59 °F

Passing clouds.


Feels Like: 58 °F
Forecast: 60 / 73 °F
Wind: 7 mph from East

Location: Fassberg

Current Time: Jul 24, 2014 at 7:24:51 AM

Latest Report: Jul 24, 2014 at 6:20 AM


Visibility: N/A

Pressure: 30.07 "Hg

Humidity: 88%

Dew point: 55 °F

Location of WalsrodeLocation

Historic Weather in Walsrode — Graph

°F

Walsrode temperature yesterday

Maximum temperature yesterday: 82 °F (at 4:20 PM)
Minimum temperature yesterday: 61 °F (at 4:20 AM)
Average temperature yesterday: 71 °F

Past Weeks' High & Low Weather Summary

 TemperatureHumidityPressure
High88 °F (Jul 19, 1:20 PM)100% (Jul 9, 8:48 AM)30.21 "Hg (Jul 9, 8:48 AM)
Low50 °F (Jul 12, 5:20 AM)31% (Jul 19, 4:20 PM)29.59 "Hg (Jul 9, 10:57 AM)
Average69 °F72%29.95 "Hg
* Reported Jul 9 6:56 AM — Jul 24 6:20 AM, Walsrode, Weather by CustomWeather, © 2014

Note: Actual official high and low records may vary slightly from our data, if they occured in-between our weather recording intervals... More about our weather records

Advertising

Walsrode weather history for previous 24 hours

 ConditionsComfort  
Time TempWeatherWind HumidityBarometerVisibility
6:20 AM
Jul 24
59 °FPassing clouds.7 mph88%30.07 "HgN/A
5:20 AM59 °FPassing clouds.7 mph82%30.07 "HgN/A
4:20 AM59 °FPassing clouds.7 mph82%30.07 "HgN/A
2:20 AM61 °FPassing clouds.7 mph72%30.07 "HgN/A
1:20 AM63 °FPassing clouds.9 mph68%30.09 "HgN/A
12:20 AM63 °FPassing clouds.6 mph68%30.09 "HgN/A
11:20 PM
Jul 23
66 °FPassing clouds.8 mph60%30.09 "HgN/A
10:20 PM68 °FPassing clouds.8 mph56%30.09 "HgN/A
9:20 PM72 °FPassing clouds.7 mph50%30.07 "HgN/A
8:20 PM77 °FPassing clouds.9 mph42%30.07 "HgN/A
7:20 PM77 °FPassing clouds.13 mph44%30.07 "HgN/A
6:20 PM77 °FPassing clouds.13 mph44%30.07 "HgN/A
5:20 PM79 °FPassing clouds.14 mph39%30.07 "HgN/A
4:20 PM82 °FPassing clouds.10 mph37%30.09 "HgN/A
3:20 PM81 °FPassing clouds.14 mph37%30.09 "HgN/A
2:20 PM79 °FPassing clouds.13 mph42%30.12 "HgN/A
1:20 PM79 °FPassing clouds.10 mph45%30.12 "HgN/A
12:20 PM77 °FPassing clouds.13 mph47%30.12 "HgN/A
11:20 AM75 °FPassing clouds.15 mph50%30.15 "HgN/A
10:20 AM73 °FPassing clouds.15 mph53%30.15 "HgN/A
9:20 AM70 °FPassing clouds.13 mph60%30.15 "HgN/A
7:20 AM64 °FPassing clouds.13 mph73%30.15 "HgN/A
Weather by CustomWeather, © 2014

See weather overviewHow to use our weather pages